Time,TemperatureF,DewpointF,PressureIn,WindDirection,WindDirectionDegrees,WindSpeedMPH,WindSpeedGustMPH,Humidity,HourlyPrecipIn,Conditions,Clouds,dailyrainin,SoftwareType,DateUTC
2013-09-18 00:14:00,43.5,41.1,30.17,ENE,67,0.0,-999.0,91,-99.99,,,0.00,Acu-Link.com,2013-09-18 04:14:00,
2013-09-18 00:29:00,43.2,41.0,30.17,East,90,0.0,-999.0,92,-99.99,,,0.00,Acu-Link.com,2013-09-18 04:29:00,
2013-09-18 00:44:00,43.0,40.8,30.17,NNE,22,0.0,-999.0,92,-99.99,,,0.00,Acu-Link.com,2013-09-18 04:44:00,
2013-09-18 00:59:00,42.6,40.4,30.16,NNE,22,0.0,-999.0,92,-99.99,,,0.00,Acu-Link.com,2013-09-18 04:59:00,
2013-09-18 01:14:00,42.1,40.2,30.17,ESE,112,0.0,-999.0,93,-99.99,,,0.00,Acu-Link.com,2013-09-18 05:14:00,
2013-09-18 01:30:00,41.9,40.0,30.17,East,90,0.0,-999.0,93,-99.99,,,0.00,Acu-Link.com,2013-09-18 05:30:00,
2013-09-18 01:45:00,41.7,39.8,30.17,NE,45,0.0,-999.0,93,-99.99,,,0.00,Acu-Link.com,2013-09-18 05:45:00,
2013-09-18 02:00:00,41.5,39.6,30.17,ENE,67,0.0,-999.0,93,-99.99,,,0.00,Acu-Link.com,2013-09-18 06:00:00,
2013-09-18 02:15:00,41.2,39.6,30.17,East,90,0.0,-999.0,94,-99.99,,,0.00,Acu-Link.com,2013-09-18 06:15:00,
2013-09-18 02:30:00,41.2,39.6,30.16,NE,45,0.0,-999.0,94,-99.99,,,0.00,Acu-Link.com,2013-09-18 06:30:00,
2013-09-18 02:45:00,40.8,39.2,30.16,East,90,0.0,-999.0,94,-99.99,,,0.00,Acu-Link.com,2013-09-18 06:45:00,
2013-09-18 03:00:00,40.6,39.0,30.16,ENE,67,0.0,-999.0,94,-99.99,,,0.00,Acu-Link.com,2013-09-18 07:00:00,
2013-09-18 03:15:00,40.6,39.0,30.16,East,90,0.0,-999.0,94,-99.99,,,0.00,Acu-Link.com,2013-09-18 07:15:00,
2013-09-18 03:30:00,40.8,39.5,30.16,NE,45,0.0,-999.0,95,-99.99,,,0.00,Acu-Link.com,2013-09-18 07:30:00,
2013-09-18 03:45:00,40.8,39.5,30.16,East,90,0.0,-999.0,95,-99.99,,,0.00,Acu-Link.com,2013-09-18 07:45:00,
2013-09-18 04:01:00,40.5,39.2,30.16,ESE,112,0.0,-999.0,95,-99.99,,,0.00,Acu-Link.com,2013-09-18 08:01:00,
2013-09-18 04:16:00,40.5,39.2,30.16,NNE,22,0.0,-999.0,95,-99.99,,,0.00,Acu-Link.com,2013-09-18 08:16:00,
2013-09-18 04:47:00,40.1,38.8,30.16,East,90,0.0,-999.0,95,-99.99,,,0.00,Acu-Link.com,2013-09-18 08:47:00,
2013-09-18 05:03:00,40.1,38.5,30.16,East,90,0.0,-999.0,94,-99.99,,,0.00,Acu-Link.com,2013-09-18 09:03:00,
2013-09-18 05:18:00,40.6,39.3,30.17,SW,225,0.0,-999.0,95,-99.99,,,0.00,Acu-Link.com,2013-09-18 09:18:00,
2013-09-18 05:33:00,40.5,38.9,30.17,West,270,0.0,-999.0,94,-99.99,,,0.00,Acu-Link.com,2013-09-18 09:33:00,
2013-09-18 05:48:00,40.3,39.0,30.17,East,90,0.0,-999.0,95,-99.99,,,0.00,Acu-Link.com,2013-09-18 09:48:00,
2013-09-18 06:03:00,40.5,39.2,30.17,NW,315,0.0,-999.0,95,-99.99,,,0.00,Acu-Link.com,2013-09-18 10:03:00,
2013-09-18 06:18:00,40.1,38.8,30.17,East,90,0.0,-999.0,95,-99.99,,,0.00,Acu-Link.com,2013-09-18 10:18:00,
2013-09-18 06:34:00,40.1,38.8,30.18,ESE,112,0.0,-999.0,95,-99.99,,,0.00,Acu-Link.com,2013-09-18 10:34:00,
2013-09-18 06:49:00,40.1,38.8,30.18,NNE,22,0.0,-999.0,95,-99.99,,,0.00,Acu-Link.com,2013-09-18 10:49:00,
2013-09-18 07:04:00,39.9,38.6,30.18,NE,45,0.0,-999.0,95,-99.99,,,0.00,Acu-Link.com,2013-09-18 11:04:00,
2013-09-18 07:19:00,39.7,38.4,30.18,ENE,67,0.0,-999.0,95,-99.99,,,0.00,Acu-Link.com,2013-09-18 11:19:00,
2013-09-18 07:34:00,39.9,38.6,30.19,NNE,22,0.0,-999.0,95,-99.99,,,0.00,Acu-Link.com,2013-09-18 11:34:00,
2013-09-18 07:49:00,40.8,39.5,30.18,NE,45,0.0,-999.0,95,-99.99,,,0.00,Acu-Link.com,2013-09-18 11:49:00,
2013-09-18 08:04:00,41.0,39.7,30.18,ENE,67,1.1,-999.0,95,-99.99,,,0.00,Acu-Link.com,2013-09-18 12:04:00,
2013-09-18 08:19:00,41.9,40.3,30.18,South,180,0.0,-999.0,94,-99.99,,,0.00,Acu-Link.com,2013-09-18 12:19:00,
2013-09-18 08:34:00,43.0,40.8,30.18,ENE,67,0.0,-999.0,92,-99.99,,,0.00,Acu-Link.com,2013-09-18 12:34:00,
2013-09-18 08:50:00,43.0,40.8,30.18,NNE,22,0.0,-999.0,92,-99.99,,,0.00,Acu-Link.com,2013-09-18 12:50:00,
2013-09-18 09:05:00,42.8,40.6,30.17,West,270,2.7,-999.0,92,-99.99,,,0.00,Acu-Link.com,2013-09-18 13:05:00,
2013-09-18 09:20:00,43.5,41.3,30.17,WNW,292,3.7,-999.0,92,-99.99,,,0.00,Acu-Link.com,2013-09-18 13:20:00,
2013-09-18 09:35:00,45.3,42.5,30.17,SW,225,2.2,-999.0,90,-99.99,,,0.00,Acu-Link.com,2013-09-18 13:35:00,
2013-09-18 09:50:00,47.3,43.6,30.16,West,270,0.0,-999.0,87,-99.99,,,0.00,Acu-Link.com,2013-09-18 13:50:00,
2013-09-18 10:05:00,49.3,44.4,30.15,SSE,157,1.7,-999.0,83,-99.99,,,0.00,Acu-Link.com,2013-09-18 14:05:00,
2013-09-18 10:20:00,51.1,45.8,30.15,SSW,202,0.0,-999.0,82,-99.99,,,0.00,Acu-Link.com,2013-09-18 14:20:00,
2013-09-18 10:35:00,53.6,46.9,30.14,WNW,292,0.0,-999.0,78,-99.99,,,0.00,Acu-Link.com,2013-09-18 14:35:00,
2013-09-18 10:50:00,55.9,48.1,30.13,NE,45,2.2,-999.0,75,-99.99,,,0.00,Acu-Link.com,2013-09-18 14:50:00,
2013-09-18 11:06:00,57.9,48.6,30.13,SE,135,1.7,-999.0,71,-99.99,,,0.00,Acu-Link.com,2013-09-18 15:06:00,
2013-09-18 11:21:00,59.5,48.1,30.12,West,270,1.7,-999.0,66,-99.99,,,0.00,Acu-Link.com,2013-09-18 15:21:00,
2013-09-18 11:36:00,60.8,46.8,30.11,WSW,247,2.7,-999.0,60,-99.99,,,0.00,Acu-Link.com,2013-09-18 15:36:00,
2013-09-18 11:51:00,62.6,45.7,30.10,East,90,3.2,-999.0,54,-99.99,,,0.00,Acu-Link.com,2013-09-18 15:51:00,
2013-09-18 12:06:00,63.5,45.6,30.09,NNE,22,2.2,-999.0,52,-99.99,,,0.00,Acu-Link.com,2013-09-18 16:06:00,
2013-09-18 12:21:00,64.8,46.8,30.08,East,90,2.7,-999.0,52,-99.99,,,0.00,Acu-Link.com,2013-09-18 16:21:00,
2013-09-18 12:36:00,65.8,46.1,30.07,WSW,247,1.1,-999.0,49,-99.99,,,0.00,Acu-Link.com,2013-09-18 16:36:00,
2013-09-18 12:52:00,65.8,46.1,30.06,NE,45,1.7,-999.0,49,-99.99,,,0.00,Acu-Link.com,2013-09-18 16:52:00,
2013-09-18 13:07:00,68.0,46.4,30.05,SE,135,0.0,-999.0,46,-99.99,,,0.00,Acu-Link.com,2013-09-18 17:07:00,
2013-09-18 13:22:00,69.1,46.9,30.04,ENE,67,1.1,-999.0,45,-99.99,,,0.00,Acu-Link.com,2013-09-18 17:22:00,
2013-09-18 13:37:00,68.9,47.3,30.03,SW,225,4.7,-999.0,46,-99.99,,,0.00,Acu-Link.com,2013-09-18 17:37:00,
2013-09-18 13:52:00,70.0,47.1,30.02,WSW,247,9.4,-999.0,44,-99.99,,,0.00,Acu-Link.com,2013-09-18 17:52:00,
2013-09-18 14:07:00,71.1,46.2,30.02,West,270,2.2,-999.0,41,-99.99,,,0.00,Acu-Link.com,2013-09-18 18:07:00,
2013-09-18 14:22:00,72.5,46.8,30.01,NNE,22,2.2,-999.0,40,-99.99,,,0.00,Acu-Link.com,2013-09-18 18:22:00,
2013-09-18 14:37:00,73.2,46.7,30.00,WSW,247,4.2,-999.0,39,-99.99,,,0.00,Acu-Link.com,2013-09-18 18:37:00,
2013-09-18 14:53:00,73.6,46.4,29.99,South,180,1.7,-999.0,38,-99.99,,,0.00,Acu-Link.com,2013-09-18 18:53:00,
2013-09-18 15:23:00,76.1,45.7,29.98,West,270,2.7,-999.0,34,-99.99,,,0.00,Acu-Link.com,2013-09-18 19:23:00,
2013-09-18 15:38:00,77.7,47.8,29.97,SE,135,3.7,-999.0,35,-99.99,,,0.00,Acu-Link.com,2013-09-18 19:38:00,
2013-09-18 15:53:00,80.1,48.4,29.97,SSE,157,4.2,-999.0,33,-99.99,,,0.00,Acu-Link.com,2013-09-18 19:53:00,
2013-09-18 16:08:00,81.9,48.3,29.97,South,180,4.7,-999.0,31,-99.99,,,0.00,Acu-Link.com,2013-09-18 20:08:00,
2013-09-18 16:23:00,81.7,45.4,29.96,SE,135,3.7,-999.0,28,-99.99,,,0.00,Acu-Link.com,2013-09-18 20:23:00,
2013-09-18 16:38:00,80.6,45.4,29.96,WSW,247,2.7,-999.0,29,-99.99,,,0.00,Acu-Link.com,2013-09-18 20:38:00,
2013-09-18 16:53:00,81.0,45.7,29.95,NNE,22,0.0,-999.0,29,-99.99,,,0.00,Acu-Link.com,2013-09-18 20:53:00,
2013-09-18 17:08:00,81.3,45.1,29.95,SSE,157,2.2,-999.0,28,-99.99,,,0.00,Acu-Link.com,2013-09-18 21:08:00,
2013-09-18 17:24:00,83.5,46.9,29.95,West,270,2.2,-999.0,28,-99.99,,,0.00,Acu-Link.com,2013-09-18 21:24:00,
2013-09-18 17:39:00,84.0,48.3,29.95,WSW,247,2.2,-999.0,29,-99.99,,,0.00,Acu-Link.com,2013-09-18 21:39:00,
2013-09-18 17:54:00,84.7,46.0,29.95,West,270,2.7,-999.0,26,-99.99,,,0.00,Acu-Link.com,2013-09-18 21:54:00,
2013-09-18 18:09:00,81.0,48.3,29.95,ENE,67,0.0,-999.0,32,-99.99,,,0.00,Acu-Link.com,2013-09-18 22:09:00,
2013-09-18 18:24:00,73.8,48.6,29.95,ESE,112,0.0,-999.0,41,-99.99,,,0.00,Acu-Link.com,2013-09-18 22:24:00,
2013-09-18 18:39:00,68.2,48.8,29.96,East,90,0.0,-999.0,50,-99.99,,,0.00,Acu-Link.com,2013-09-18 22:39:00,
2013-09-18 18:54:00,64.8,49.2,29.96,ESE,112,0.0,-999.0,57,-99.99,,,0.00,Acu-Link.com,2013-09-18 22:54:00,
2013-09-18 19:09:00,62.8,48.7,29.97,ENE,67,0.0,-999.0,60,-99.99,,,0.00,Acu-Link.com,2013-09-18 23:09:00,
2013-09-18 19:24:00,61.2,47.6,29.97,NNE,22,0.0,-999.0,61,-99.99,,,0.00,Acu-Link.com,2013-09-18 23:24:00,
2013-09-18 19:40:00,59.7,47.9,29.97,East,90,0.0,-999.0,65,-99.99,,,0.00,Acu-Link.com,2013-09-18 23:40:00,
2013-09-18 19:55:00,58.3,48.2,29.97,NE,45,0.0,-999.0,69,-99.99,,,0.00,Acu-Link.com,2013-09-18 23:55:00,
2013-09-18 20:10:00,57.2,47.5,29.98,ENE,67,0.0,-999.0,70,-99.99,,,0.00,Acu-Link.com,2013-09-19 00:10:00,
2013-09-18 20:26:00,55.9,48.1,29.98,NE,45,0.0,-999.0,75,-99.99,,,0.00,Acu-Link.com,2013-09-19 00:26:00,
2013-09-18 20:41:00,54.9,47.8,29.99,NE,45,0.0,-999.0,77,-99.99,,,0.00,Acu-Link.com,2013-09-19 00:41:00,
2013-09-18 20:56:00,53.8,47.8,29.99,East,90,0.0,-999.0,80,-99.99,,,0.00,Acu-Link.com,2013-09-19 00:56:00,
2013-09-18 21:11:00,53.2,47.5,30.00,NE,45,0.0,-999.0,81,-99.99,,,0.00,Acu-Link.com,2013-09-19 01:11:00,
2013-09-18 21:26:00,52.2,47.5,29.99,ENE,67,0.0,-999.0,84,-99.99,,,0.00,Acu-Link.com,2013-09-19 01:26:00,
2013-09-18 21:41:00,51.4,47.4,30.00,NNE,22,0.0,-999.0,86,-99.99,,,0.00,Acu-Link.com,2013-09-19 01:41:00,
2013-09-18 21:56:00,50.9,47.2,30.00,ENE,67,0.0,-999.0,87,-99.99,,,0.00,Acu-Link.com,2013-09-19 01:56:00,
2013-09-18 22:11:00,50.5,46.8,30.00,NNE,22,0.0,-999.0,87,-99.99,,,0.00,Acu-Link.com,2013-09-19 02:11:00,
2013-09-18 22:26:00,49.8,46.1,30.01,ENE,67,0.0,-999.0,87,-99.99,,,0.00,Acu-Link.com,2013-09-19 02:26:00,
2013-09-18 22:41:00,49.3,46.2,30.01,ESE,112,0.0,-999.0,89,-99.99,,,0.00,Acu-Link.com,2013-09-19 02:41:00,
2013-09-18 22:57:00,48.7,45.9,30.01,NE,45,0.0,-999.0,90,-99.99,,,0.00,Acu-Link.com,2013-09-19 02:57:00,
2013-09-18 23:12:00,48.2,45.4,30.01,East,90,0.0,-999.0,90,-99.99,,,0.00,Acu-Link.com,2013-09-19 03:12:00,
2013-09-18 23:27:00,48.2,45.4,30.01,NE,45,0.0,-999.0,90,-99.99,,,0.00,Acu-Link.com,2013-09-19 03:27:00,
2013-09-18 23:42:00,47.7,44.9,30.01,East,90,0.0,-999.0,90,-99.99,,,0.00,Acu-Link.com,2013-09-19 03:42:00,